[[{"header":{"parameterUnit":"m.s-1","parameterCategory":1,"la1":30.2991,"la2":30.254,"lo1":-89.0895,"lo2":-89.0444,"dy":0.0017,"dx":0.0017,"nx":28,"ny":28,"refTime":"2025-04-15T21:00:00:Z","depth":0,"parameterNumber":2,"parameterNumberName":"U-component_of_WINDS"},"data":[0,0,0,0,0,0,0,0,0,0,0,0,0,0,0,0,0,0,0,0,0,0,0,0,0,0,0,0,0,0,0,0,0,0,0,0,0,0,0,0,0,0,0,0,0,0,0,0,0,0,0,0,0,0,0,0,0,0,-2.5854,-2.5855,0,-2.5907,-2.5908,-2.5909,-2.5796,-2.5792,-2.5788,-2.5785,-2.5842,-2.5846,-2.5851,0,0,0,0,0,0,0,0,0,0,0,0,0,-2.5656,-2.5661,-2.5854,-2.5855,-2.5856,-2.5907,-2.5908,-2.5909,-2.5796,-2.5792,-2.5788,-2.5783,-2.584,-2.5846,-2.5852,0,0,0,0,0,0,0,0,0,0,0,0,0,-2.5729,-2.5662,-2.5854,-2.5806,-2.5802,-2.5907,-2.5908,-2.5909,-2.5797,-2.5792,-2.5786,-2.5781,-2.5838,-2.5845,-2.5853,-2.6008,0,0,-2.5875,-2.5878,0,0,0,0,0,0,0,0,-2.5725,-2.5737,-2.5812,-2.5809,-2.5805,-2.5839,-2.5859,-2.5942,-2.5799,-2.5799,-2.5785,-2.5779,-2.5845,-2.5852,-2.5874,-2.6011,-2.6013,-2.5876,-2.588,-2.5883,-2.5885,0,0,0,0,0,0,0,-2.572,-2.5734,-2.5875,-2.5813,-2.5809,-2.5781,-2.5786,-2.5874,-2.5853,-2.5799,-2.5791,-2.5798,-2.5842,-2.5867,-2.5874,-2.6014,-2.5876,-2.5882,-2.5887,-2.589,-2.628,-2.6285,0,0,0,0,0,0,-2.5721,-2.573,-2.5874,-2.5877,-2.5751,-2.579,-2.5794,-2.5834,-2.5851,-2.5849,-2.5803,-2.5793,-2.5857,-2.5866,-2.5876,-2.606,-2.5883,-2.589,-2.5894,-2.6274,-2.6281,-2.6288,0,0,0,0,0,0,-2.5717,-2.5735,-2.5871,-2.5801,-2.5817,-2.5799,-2.5844,-2.5838,-2.5862,-2.5854,-2.585,-2.5832,-2.5853,-2.5866,-2.5976,-2.606,-2.5894,-2.59,-2.6267,-2.6276,-2.6284,-2.6428,0,0,0,0,0,0,-2.5712,-2.5734,-2.5793,-2.5804,-2.5821,-2.5971,-2.5849,-2.5843,-2.5875,-2.5862,-2.5881,-2.5878,-2.585,-2.5965,-2.5983,-2.6067,-2.5906,-2.6259,-2.6271,-2.6282,-2.6416,-2.6441,-2.6462,0,0,0,0,0,-2.5706,-2.5832,-2.5797,-2.5815,-2.5894,-2.5976,-2.5986,-2.595,-2.5882,-2.5942,-2.5936,-2.5878,-2.6047,-2.5978,-2.5997,-2.6084,-2.6254,-2.6268,-2.6281,-2.6405,-2.6436,-2.6462,0,0,0,0,0,0,-2.5834,-2.5833,-2.5794,-2.5927,-2.5953,-2.5957,-2.6031,-2.5983,-2.6028,-2.6015,-2.5968,-2.5973,-2.6093,-2.6099,-2.6021,-2.6235,-2.6139,-2.6157,-2.6228,-2.6256,-2.6279,-2.6277,-2.5912,0,0,0,0,0,-2.5878,-2.5944,-2.5939,-2.6058,-2.6072,-2.6049,-2.6083,-2.6053,-2.6077,-2.6088,-2.609,-2.6117,-2.6175,-2.6216,-2.6269,-2.6415,-2.6417,-2.6484,-2.6507,-2.6526,-2.6543,-2.6621,-2.6651,-2.6331,-2.6331,-2.6331,0,0,-2.5969,-2.5977,-2.6022,-2.6084,-2.6099,-2.6169,-2.6059,-2.6138,-2.6189,-2.61,-2.6204,-2.6207,-2.6233,-2.6362,-2.6418,-2.637,-2.6631,-2.6543,-2.6559,-2.6565,-2.6638,-2.6668,-2.6695,-2.6341,-2.6339,-2.6337,0,0,-2.6172,-2.6184,-2.6284,-2.6302,-2.6326,-2.631,-2.6334,-2.6345,-2.6343,-2.6446,-2.6381,-2.6441,-2.6543,-2.6565,-2.6589,-2.6797,-2.6746,-2.6816,-2.6938,-2.7014,-2.704,-2.7062,-2.7138,-2.7165,-2.6832,-2.6832,-2.6832,0,-2.6284,-2.6386,-2.6342,-2.6425,-2.6455,-2.6374,-2.6476,-2.6495,-2.6537,-2.6559,-2.6504,-2.663,-2.6642,-2.6774,-2.6825,-2.6847,-2.6873,-2.6815,-2.7039,-2.7061,-2.7081,-2.7153,-2.7182,-2.6841,-2.684,-2.6839,-2.6838,0,-2.6522,-2.6594,-2.6672,-2.6713,-2.675,-2.6843,-2.6812,-2.6856,-2.6821,-2.6811,-2.6917,-2.6927,-2.6982,-2.701,-2.6978,-2.7138,-2.7108,-2.7047,-2.695,-2.7121,-2.7188,-2.7215,-2.6853,-2.685,-2.6847,-2.6845,0,0,-2.6812,-2.6825,-2.6855,-2.6872,-2.6892,-2.6947,-2.7034,-2.7087,-2.7125,-2.7155,-2.7229,-2.7316,-2.7259,-2.7287,-2.7255,-2.7322,-2.7487,-2.7252,-2.7252,-2.7297,-2.7666,-2.7714,-2.7747,-2.7451,-2.7456,-2.746,-2.7664,0,-2.7014,-2.7165,-2.7127,-2.7277,-2.7343,-2.7266,-2.7342,-2.7363,-2.7355,-2.741,-2.74,-2.7463,-2.7382,-2.7399,-2.746,-2.7454,-2.7561,-2.7438,-2.7521,-2.7524,-2.752,-2.7781,-2.7833,-2.8025,-2.769,-2.7694,-2.7697,0,-2.7272,-2.7311,-2.7468,-2.7476,-2.7502,-2.7572,-2.7616,-2.7669,-2.769,-2.7679,-2.7709,-2.7664,-2.775,-2.765,-2.7769,-2.7686,-2.7717,-2.7718,-2.7725,-2.7734,-2.7624,-2.78,-2.8085,-2.8115,-2.7738,-2.7735,-2.7732,0,-2.747,-2.7562,-2.7667,-2.7684,-2.7696,-2.7747,-2.7754,-2.7769,-2.7803,-2.7841,-2.7862,-2.791,-2.7938,-2.7976,-2.7945,-2.7874,-2.8069,-2.7966,-2.8064,-2.8065,-2.8111,-2.811,-2.8409,-2.8127,-2.8126,-2.8126,-2.8125,0,-2.7702,-2.7802,-2.7756,-2.7822,-2.7931,-2.7884,-2.7993,-2.7992,-2.8006,-2.807,-2.8005,-2.8066,-2.802,-2.8077,-2.8053,-2.8156,-2.8168,-2.8162,-2.8155,-2.817,-2.8171,-2.8192,-2.8179,-2.8133,-2.8132,-2.813,-2.8129,0,-2.7944,-2.7917,-2.8028,-2.8028,-2.8031,-2.8111,-2.8112,-2.8173,-2.8158,-2.8239,-2.8256,-2.8234,-2.8297,-2.8269,-2.8336,-2.8319,-2.8452,-2.8426,-2.8446,-2.844,-2.854,-2.8532,-2.8865,-2.8907,-2.8596,-2.8599,-2.8601,0,-2.8096,-2.817,-2.8179,-2.8216,-2.8228,-2.8289,-2.8322,-2.8279,-2.8316,-2.8345,-2.8402,-2.846,-2.8504,-2.861,-2.86,-2.865,-2.8627,-2.874,-2.8634,-2.8646,-2.8631,-2.8628,-2.8636,-2.8762,-2.8766,-2.8769,-2.8771,0,-2.8368,-2.8351,-2.8401,-2.8447,-2.8488,-2.8522,-2.8551,-2.8585,-2.8542,-2.8588,-2.8652,-2.8686,-2.8753,-2.8812,-2.8856,-2.8863,-2.8812,-2.8804,-2.8829,-2.8847,-2.8856,-2.8855,-2.8506,-2.8797,-2.8795,-2.8793,-2.8791,-2.879,-2.8571,-2.8634,-2.8649,-2.8707,-2.8724,-2.8751,-2.8808,-2.88,-2.8852,-2.8903,-2.8874,-2.8949,-2.8966,-2.902,-2.9034,-2.9092,-2.9047,-2.9084,-2.9094,-2.9105,-2.9119,-2.8844,-2.9099,-2.9098,-2.9098,-2.9097,-2.9097,0,-2.8843,-2.8848,-2.8901,-2.8943,-2.8988,-2.8932,-2.896,-2.9003,-2.9069,-2.9089,-2.9134,-2.9207,-2.9263,-2.9256,-2.9307,-2.9355,-2.9332,-2.937,-2.9367,-2.937,-2.9155,-2.9129,-2.9387,-2.9387,-2.9387,-2.9387,-2.9387,-2.9387,-2.899,-2.9093,-2.9077,-2.9187,-2.9191,-2.9264,-2.9285,-2.931,-2.9326,-2.941,-2.9456,-2.945,-2.946,-2.951,-2.9559,-2.9555,-2.9578,-2.9626,-2.9614,-2.9414,-2.9385,-2.9358,-2.9333,-2.9631,-2.9631,-2.9825,-2.9826,-2.9828]},{"header":{"parameterUnit":"m.s-1","parameterCategory":1,"la1":30.2991,"la2":30.254,"lo1":-89.0895,"lo2":-89.0444,"dy":0.0017,"dx":0.0017,"nx":28,"ny":28,"refTime":"2025-04-15T21:00:00:Z","depth":0,"parameterNumber":3,"parameterNumberName":"V-component_of_WINDS"},"data":[0,0,0,0,0,0,0,0,0,0,0,0,0,0,0,0,0,0,0,0,0,0,0,0,0,0,0,0,0,0,0,0,0,0,0,0,0,0,0,0,0,0,0,0,0,0,0,0,0,0,0,0,0,0,0,0,0,0,-4.0955,-4.0956,0,-4.1035,-4.1036,-4.1037,-4.0978,-4.0975,-4.0972,-4.097,-4.1048,-4.1053,-4.1057,0,0,0,0,0,0,0,0,0,0,0,0,0,-4.0749,-4.0753,-4.0955,-4.0956,-4.0957,-4.1035,-4.1036,-4.1037,-4.0978,-4.0975,-4.0972,-4.0969,-4.1047,-4.1052,-4.1057,0,0,0,0,0,0,0,0,0,0,0,0,0,-4.0834,-4.0754,-4.0955,-4.0937,-4.0937,-4.1034,-4.1036,-4.1037,-4.0979,-4.0975,-4.0971,-4.0967,-4.1045,-4.1051,-4.1058,-4.1177,0,0,-4.1079,-4.1082,0,0,0,0,0,0,0,0,-4.0829,-4.0842,-4.0939,-4.0939,-4.0938,-4.0992,-4.0991,-4.1084,-4.098,-4.0963,-4.097,-4.0965,-4.1033,-4.104,-4.1063,-4.118,-4.1184,-4.1079,-4.1083,-4.1086,-4.1088,0,0,0,0,0,0,0,-4.0824,-4.0838,-4.0987,-4.094,-4.094,-4.0924,-4.0932,-4.1009,-4.1018,-4.0964,-4.096,-4.097,-4.1031,-4.1057,-4.1065,-4.1185,-4.1079,-4.1085,-4.1089,-4.1092,-4.1402,-4.1406,0,0,0,0,0,0,-4.082,-4.0834,-4.0984,-4.0989,-4.0873,-4.0931,-4.094,-4.0979,-4.1017,-4.1019,-4.0973,-4.0967,-4.1047,-4.1057,-4.1067,-4.1208,-4.1086,-4.1092,-4.1096,-4.1397,-4.1403,-4.1407,0,0,0,0,0,0,-4.0816,-4.0834,-4.0981,-4.091,-4.0928,-4.0939,-4.0983,-4.0982,-4.1008,-4.1024,-4.1025,-4.0998,-4.1045,-4.1058,-4.115,-4.121,-4.1095,-4.1102,-4.1392,-4.1399,-4.1405,-4.149,0,0,0,0,0,0,-4.081,-4.0833,-4.0879,-4.0912,-4.0932,-4.1064,-4.0987,-4.0987,-4.102,-4.1012,-4.1048,-4.105,-4.1043,-4.114,-4.1157,-4.1217,-4.1107,-4.1387,-4.1395,-4.1403,-4.1482,-4.1499,-4.1513,0,0,0,0,0,-4.0803,-4.0899,-4.0882,-4.09,-4.099,-4.1067,-4.1079,-4.1069,-4.1025,-4.1071,-4.1081,-4.1049,-4.1201,-4.115,-4.1168,-4.1231,-4.1383,-4.1393,-4.1402,-4.1475,-4.1496,-4.1513,0,0,0,0,0,0,-4.0872,-4.0903,-4.0884,-4.0994,-4.1029,-4.1057,-4.1115,-4.1091,-4.1138,-4.1129,-4.1115,-4.1123,-4.122,-4.1234,-4.1178,-4.1347,-4.1285,-4.1298,-4.1334,-4.1353,-4.1369,-4.1363,-4.1112,0,0,0,0,0,-4.0901,-4.0962,-4.0985,-4.1081,-4.1099,-4.1104,-4.1137,-4.1127,-4.1162,-4.1176,-4.1193,-4.1227,-4.1282,-4.1318,-4.137,-4.1484,-4.149,-4.1536,-4.1552,-4.1564,-4.1576,-4.1636,-4.1656,-4.1438,-4.1438,-4.1438,0,0,-4.096,-4.0984,-4.1024,-4.1095,-4.1121,-4.1183,-4.1117,-4.1186,-4.1232,-4.1186,-4.1274,-4.1288,-4.1324,-4.1428,-4.1474,-4.1443,-4.1637,-4.1576,-4.1586,-4.1591,-4.1648,-4.1668,-4.1687,-4.1445,-4.1443,-4.1442,0,0,-4.1099,-4.1124,-4.1206,-4.1233,-4.1272,-4.1275,-4.1295,-4.1327,-4.1334,-4.1423,-4.1389,-4.1443,-4.1539,-4.1566,-4.1592,-4.1741,-4.1712,-4.1758,-4.1838,-4.1897,-4.1914,-4.1929,-4.1982,-4.2001,-4.177,-4.177,-4.177,0,-4.1167,-4.1261,-4.1251,-4.1322,-4.1354,-4.1316,-4.1398,-4.1424,-4.1478,-4.15,-4.1465,-4.1584,-4.1606,-4.1714,-4.1751,-4.1774,-4.1794,-4.1754,-4.1913,-4.1928,-4.1942,-4.1991,-4.2011,-4.1775,-4.1775,-4.1774,-4.1774,0,-4.1342,-4.1408,-4.1469,-4.1523,-4.1562,-4.1638,-4.1637,-4.1677,-4.1664,-4.167,-4.1759,-4.1784,-4.184,-4.1865,-4.1852,-4.1972,-4.1951,-4.1915,-4.1852,-4.1968,-4.2014,-4.2033,-4.1783,-4.1781,-4.1779,-4.1778,0,0,-4.1528,-4.1575,-4.1598,-4.1621,-4.1662,-4.1712,-4.1786,-4.1841,-4.1875,-4.1913,-4.1974,-4.2055,-4.2022,-4.2052,-4.2041,-4.2093,-4.2208,-4.205,-4.2051,-4.2078,-4.234,-4.2367,-4.2389,-4.2189,-4.2193,-4.2196,-4.2337,0,-4.1669,-4.1799,-4.1791,-4.1913,-4.1973,-4.1937,-4.2001,-4.2032,-4.204,-4.209,-4.2097,-4.2155,-4.2107,-4.2125,-4.2174,-4.2184,-4.226,-4.2173,-4.2244,-4.2247,-4.2236,-4.2413,-4.2442,-4.2574,-4.2355,-4.2358,-4.236,0,-4.1851,-4.1896,-4.2024,-4.2055,-4.208,-4.2138,-4.2187,-4.2237,-4.227,-4.2272,-4.2305,-4.2286,-4.2359,-4.2294,-4.2394,-4.2335,-4.2363,-4.2372,-4.2377,-4.2383,-4.2311,-4.2424,-4.2616,-4.2636,-4.2389,-4.2386,-4.2384,0,-4.1973,-4.2066,-4.2154,-4.2175,-4.2214,-4.2255,-4.2273,-4.2303,-4.2336,-4.2379,-4.24,-4.2451,-4.2478,-4.2517,-4.2511,-4.2465,-4.2613,-4.2547,-4.2615,-4.2615,-4.2647,-4.2645,-4.2846,-4.2667,-4.2666,-4.2666,-4.2666,0,-4.2131,-4.221,-4.2209,-4.2264,-4.2351,-4.234,-4.2427,-4.2439,-4.2466,-4.2521,-4.2493,-4.2545,-4.2535,-4.2586,-4.2582,-4.2665,-4.2677,-4.268,-4.2677,-4.2682,-4.2682,-4.27,-4.2691,-4.2671,-4.267,-4.2669,-4.2668,0,-4.2281,-4.2284,-4.2378,-4.2407,-4.2416,-4.2479,-4.2502,-4.2553,-4.2558,-4.2628,-4.2643,-4.265,-4.2709,-4.2708,-4.2774,-4.2771,-4.2873,-4.286,-4.2862,-4.2859,-4.2926,-4.292,-4.3146,-4.3174,-4.2977,-4.2979,-4.298,0,-4.2382,-4.2442,-4.2478,-4.2513,-4.2533,-4.2591,-4.2625,-4.2616,-4.2652,-4.2695,-4.274,-4.2797,-4.2841,-4.2937,-4.2947,-4.2998,-4.2986,-4.3062,-4.2993,-4.2996,-4.2986,-4.2982,-4.2988,-4.3075,-4.3077,-4.3079,-4.308,0,-4.256,-4.2558,-4.2609,-4.266,-4.2702,-4.2742,-4.2778,-4.2808,-4.2803,-4.2845,-4.2906,-4.2941,-4.3009,-4.3065,-4.3113,-4.3129,-4.3104,-4.3102,-4.312,-4.3125,-4.3123,-4.3124,-4.2898,-4.3097,-4.3095,-4.3094,-4.3093,-4.3092,-4.2688,-4.2739,-4.2772,-4.283,-4.2856,-4.2891,-4.294,-4.295,-4.3001,-4.3057,-4.3048,-4.3115,-4.3146,-4.3208,-4.3229,-4.3281,-4.3254,-4.328,-4.3287,-4.3293,-4.3301,-4.3116,-4.329,-4.3289,-4.3289,-4.3288,-4.3288,0,-4.2863,-4.2883,-4.2936,-4.2988,-4.3032,-4.3006,-4.3044,-4.3083,-4.3143,-4.3174,-4.3219,-4.3288,-4.3342,-4.3356,-4.3408,-4.3446,-4.3436,-4.346,-4.3457,-4.3461,-4.3322,-4.3301,-4.3467,-4.3467,-4.3467,-4.3467,-4.3467,-4.3467,-4.296,-4.3046,-4.3048,-4.3146,-4.3164,-4.3231,-4.3255,-4.3286,-4.3311,-4.3389,-4.3434,-4.3444,-4.3468,-4.3521,-4.3569,-4.3571,-4.3591,-4.362,-4.3618,-4.3489,-4.3471,-4.3453,-4.3433,-4.3625,-4.3625,-4.3752,-4.3753,-4.3754]}]]